Lid_Strength_Index
4 4 3 3 3 3 3 3 5 6 7 7 6 6 6 6 6 10 12 10 11 13 11 10 9 11 12 14 16 14 14 13 14 16 16 16 17 15 15 13 14 15 15 18 14 16 19 9 10 13 10 7 7 7
4 4 4 4 3 3 3 4 6 6 7 7 7 6 6 6 6 8 12 10 9 12 13 10 8 7 8 10 12 13 13 14 12 15 15 16 15 15 14 18 12 15 12 13 13 15 12 9 9 8 6 7 7 9
4 3 3 4 4 4 5 6 6 7 7 7 7 6 6 6 6 7 10 11 12 13 13 13 12 9 7 6 6 12 12 10 12 10 11 12 13 10 15 13 13 10 10 11 12 11 11 9 8 6 6 8 8 9
4 3 4 4 5 5 6 6 6 7 7 7 6 6 6 6 6 7 9 11 12 14 15 13 7 8 6 7 7 7 9 10 10 10 11 11 11 10 11 11 11 9 9 11 12 11 9 8 7 6 7 9 9 9
4 4 5 5 5 6 6 6 7 7 7 7 6 6 6 6 6 7 10 9 9 14 16 13 9 8 9 8 8 8 9 11 11 12 11 10 9 9 8 9 11 10 12 12 12 9 9 9 8 7 10 10 9 10
5 5 5 5 6 6 6 6 7 6 6 6 6 6 6 5 5 10 15 8 6 8 12 13 10 10 9 9 10 9 9 11 10 11 9 8 7 8 11 12 9 9 8 8 9 7 7 7 7 8 9 9 9 10
4 5 5 5 5 5 5 5 5 5 5 5 5 5 5 5 7 12 15 7 5 6 9 14 16 12 9 10 10 10 9 9 7 8 9 9 8 7 10 12 9 8 7 6 5 7 9 8 9 9 9 9 10 11
4 4 5 5 5 5 5 5 5 5 5 5 5 5 5 5 6 9 8 6 5 10 10 15 14 12 9 11 11 8 9 8 7 8 7 8 7 8 11 8 8 7 6 6 7 7 8 8 8 9 10 11 12 12
3 4 4 4 5 5 5 5 5 5 5 6 5 5 8 9 11 11 4 5 8 11 14 13 14 16 10 11 11 10 9 11 9 9 9 8 10 12 10 9 8 7 7 8 8 8 8 8 10 11 12 12 13 13
4 4 4 5 5 5 6 5 5 5 5 5 8 10 12 9 5 3 6 8 9 11 11 11 12 14 11 12 13 11 11 11 12 9 7 10 11 8 7 6 7 6 7 7 9 9 9 11 12 13 13 13 13 13
4 4 4 4 4 4 4 4 4 4 5 8 9 9 8 5 5 5 8 9 10 11 10 10 11 12 10 13 13 11 12 12 12 11 11 12 11 9 7 7 7 6 7 7 7 7 9 12 13 14 14 14 13 13
3 3 3 3 3 4 4 4 4 8 10 8 9 7 8 9 9 10 10 9 10 12 11 12 10 10 9 10 12 10 10 10 13 9 11 13 10 7 7 7 6 6 7 7 7 8 11 12 13 13 13 13 12 12
3 3 3 3 3 4 4 4 4 4 5 8 8 9 9 11 12 12 13 12 12 10 10 8 8 7 7 7 8 10 12 12 9 12 12 10 8 8 7 6 6 6 6 7 8 10 12 13 12 12 12 12 12 10
3 2 2 3 3 3 3 3 3 5 8 11 11 17 12 13 12 11 11 11 9 8 7 7 8 8 7 9 9 12 10 11 13 14 14 11 9 8 6 5 6 7 7 8 10 12 13 13 12 11 11 12 12 10
2 2 2 2 2 2 2 3 3 4 8 11 10 13 12 10 9 7 7 8 7 7 6 8 8 8 9 10 9 10 12 14 13 13 11 9 8 6 5 6 7 8 7 9 11 13 13 11 11 12 11 11 9 9
2 2 4 2 2 2 2 2 4 6 7 8 9 10 9 10 10 10 9 7 5 6 5 6 8 10 11 10 12 12 13 14 14 11 10 9 8 5 6 6 7 7 8 10 12 12 11 11 11 11 10 10 9 9
2 6 2 1 1 1 1 5 5 7 9 9 10 8 7 9 9 8 8 7 5 7 9 8 11 12 9 12 12 12 13 11 10 10 9 8 8 7 6 6 7 7 9 11 12 11 10 10 10 11 11 9 9 9
5 4 1 1 2 2 3 4 6 7 9 9 11 9 8 8 9 9 7 6 8 8 7 9 7 11 12 13 11 9 9 9 9 9 9 8 7 6 6 7 7 9 10 11 11 11 10 10 10 10 10 9 9 9
4 4 1 1 2 4 6 6 6 10 9 9 8 8 9 9 8 8 7 7 7 7 8 7 9 11 10 8 8 9 10 9 9 8 7 7 6 6 6 6 7 9 10 11 11 11 9 10 10 9 9 8 10 9
1 1 2 2 3 6 7 8 5 9 10 10 9 10 9 9 8 9 8 8 9 9 10 10 10 8 8 7 8 9 9 9 9 9 9 8 6 6 6 7 8 9 10 10 10 10 9 10 9 9 9 9 10 10
3 2 2 3 5 5 7 9 9 8 7 9 8 9 9 9 10 9 9 7 8 9 11 9 8 7 7 8 8 9 9 9 9 9 9 8 6 6 6 7 8 9 10 11 11 10 10 9 9 9 9 9 9 9
5 2 4 4 6 7 7 8 10 9 10 10 10 9 10 11 11 10 8 9 10 9 8 8 7 7 8 8 7 8 8 8 8 7 7 7 7 6 7 8 8 10 10 11 10 10 10 9 8 9 9 9 9 10
3 4 6 6 9 10 11 7 10 9 11 11 10 10 10 10 9 8 11 10 9 7 7 7 7 7 7 7 7 7 7 7 7 6 6 6 5 5 7 8 8 10 11 10 9 10 9 10 9 8 9 9 10 11
3 7 9 9 9 12 8 10 9 9 9 10 11 11 10 8 6 8 10 10 9 7 9 9 8 9 8 8 9 8 8 5 5 6 5 5 6 7 8 8 8 9 9 9 9 9 9 9 10 9 9 9 11 11
11 12 10 13 9 10 10 10 10 10 11 9 10 11 10 7 10 10 10 8 7 6 5 7 9 9 9 9 8 8 6 5 5 6 5 5 7 8 8 8 8 9 9 10 10 9 10 9 9 9 9 10 11 12
13 11 13 10 10 11 11 11 10 10 10 10 9 8 7 9 10 12 10 7 7 5 5 5 6 9 9 8 8 7 5 4 4 5 6 6 6 7 9 9 10 10 8 9 9 10 10 9 9 9 10 11 13 11
14 12 11 9 10 9 10 9 9 10 10 11 9 9 10 13 14 10 6 5 5 4 3 3 3 6 7 7 4 4 3 3 4 5 5 5 6 6 7 9 9 9 8 9 9 9 9 10 9 9 10 10 10 11
10 11 12 10 9 8 11 11 10 11 10 8 9 11 12 11 11 7 5 4 4 3 2 3 3 4 4 3 3 2 3 3 3 3 4 5 6 6 7 7 7 11 8 8 9 9 9 9 9 9 9 10 10 9
11 10 10 11 10 10 9 10 11 9 8 10 11 11 11 8 7 7 5 4 4 3 4 4 4 3 3 3 4 4 4 4 5 5 6 7 7 8 7 7 7 7 8 9 14 11 9 9 10 10 9 9 9 9
11 10 11 10 11 11 9 8 9 8 9 9 9 10 10 9 7 4 4 3 4 4 4 4 4 4 4 4 5 4 4 4 4 4 6 6 5 5 7 7 7 7 7 8 10 11 14 10 11 9 10 10 10 10
9 10 10 10 11 9 8 7 8 8 8 8 9 10 9 8 6 5 5 5 5 5 5 6 6 5 5 5 5 5 5 5 4 4 4 4 3 4 4 5 7 7 8 8 8 9 9 9 9 9 10 10 10 10
10 10 11 11 9 8 9 10 10 10 9 9 8 7 7 8 9 7 6 5 6 7 9 7 7 7 6 6 6 6 8 7 7 6 5 4 3 3 3 4 4 5 7 8 8 8 8 9 9 9 9 9 9 9
8 8 8 9 10 11 9 9 10 10 9 10 9 8 8 8 9 7 5 6 7 7 7 7 7 6 6 6 6 6 7 7 9 10 10 10 10 8 4 3 3 4 5 5 6 7 8 8 8 9 9 9 9 9